Check out our new BloomSky Weather System.

Active alerts


No alerts


Thunder radar  blitzortung!


Rain radar more information rain snow radar


Visit our other weather sites:

Template documentation
and downloads

And another site



Weather Underground History page Text

Daily Summary for January 11, 2017 Units:  English    Metric   Both
« Previous Day
Next Day »
Daily Weekly Monthly Yearly Custom
  High: Low: Average:
Temperature: 79.0 °F 64.8 °F 71.4 °F
Dew Point: 68.4 °F 63.9 °F 66 °F
Humidity: 98 % 61 % 84 %
Wind Speed: 18.0 mph 1.0 mph 7 mph
Wind Gust: 27.0 mph - -
Wind:- - SSE
Pressure: 30.06 in 29.96 in -
Precipitation: 0.00 in    
Historical Graphs
 
 
Tabular Data for January 11, 2017
Time Temperature Dew Point Pressure Wind Wind Speed Wind Gust Humidity Rainfall Rate (Hourly)
00:00 67.8 °F 65.5 °F 30.05 in SSE 2.0 mph 10.0 mph 92 % 0.00 in
00:05 67.8 °F 65.7 °F 30.05 in South 4.0 mph 10.0 mph 93 % 0.00 in
00:10 67.8 °F 65.7 °F 30.05 in WSW 5.0 mph 9.0 mph 93 % 0.00 in
00:16 67.6 °F 65.5 °F 30.05 in SSE 7.0 mph 9.0 mph 93 % 0.00 in
00:21 67.6 °F 65.5 °F 30.05 in SSE 3.0 mph 9.0 mph 93 % 0.00 in
00:26 67.6 °F 65.5 °F 30.05 in SSE 3.0 mph 9.0 mph 93 % 0.00 in
00:31 67.6 °F 65.5 °F 30.05 in SW 2.0 mph 8.0 mph 93 % 0.00 in
00:36 67.5 °F 65.3 °F 30.05 in SSE 6.0 mph 8.0 mph 93 % 0.00 in
00:41 67.6 °F 65.5 °F 30.05 in SSE 2.0 mph 9.0 mph 93 % 0.00 in
00:46 67.5 °F 65.3 °F 30.05 in SSE 5.0 mph 9.0 mph 93 % 0.00 in
00:51 67.6 °F 65.5 °F 30.05 in SSE 2.0 mph 10.0 mph 93 % 0.00 in
00:56 67.5 °F 65.3 °F 30.05 in SSW 4.0 mph 10.0 mph 93 % 0.00 in
01:01 67.5 °F 65.3 °F 30.04 in ESE 6.0 mph 10.0 mph 93 % 0.00 in
01:06 67.5 °F 65.3 °F 30.05 in SSW 4.0 mph 10.0 mph 93 % 0.00 in
01:11 67.5 °F 65.3 °F 30.05 in South 5.0 mph 9.0 mph 93 % 0.00 in
01:16 67.5 °F 65.3 °F 30.05 in SSW 5.0 mph 10.0 mph 93 % 0.00 in
01:21 67.5 °F 65.3 °F 30.05 in SSE 4.0 mph 12.0 mph 93 % 0.00 in
01:26 67.5 °F 65.3 °F 30.05 in SE 5.0 mph 12.0 mph 93 % 0.00 in
01:31 67.3 °F 65.5 °F 30.05 in SSW 4.0 mph 12.0 mph 94 % 0.00 in
01:36 67.3 °F 65.5 °F 30.05 in SE 5.0 mph 10.0 mph 94 % 0.00 in
01:41 67.3 °F 65.5 °F 30.05 in SSE 4.0 mph 10.0 mph 94 % 0.00 in
01:46 67.1 °F 65.3 °F 30.04 in SE 4.0 mph 10.0 mph 94 % 0.00 in
01:51 66.9 °F 65.1 °F 30.04 in South 4.0 mph 8.0 mph 94 % 0.00 in
01:56 66.9 °F 65.1 °F 30.04 in SSE 3.0 mph 10.0 mph 94 % 0.00 in
02:01 66.7 °F 64.9 °F 30.04 in South 5.0 mph 10.0 mph 94 % 0.00 in
02:06 66.6 °F 64.8 °F 30.04 in SSE 3.0 mph 10.0 mph 94 % 0.00 in
02:11 66.6 °F 64.8 °F 30.04 in South 2.0 mph 6.0 mph 94 % 0.00 in
02:16 66.4 °F 64.6 °F 30.04 in ESE 3.0 mph 6.0 mph 94 % 0.00 in
02:21 66.0 °F 64.2 °F 30.04 in SE 3.0 mph 5.0 mph 94 % 0.00 in
02:26 65.8 °F 64.4 °F 30.04 in SE 1.0 mph 5.0 mph 95 % 0.00 in
02:31 65.7 °F 64.2 °F 30.04 in South 2.0 mph 4.0 mph 95 % 0.00 in
02:36 65.7 °F 64.2 °F 30.04 in SSE 1.0 mph 4.0 mph 95 % 0.00 in
02:41 65.5 °F 64.0 °F 30.04 in SE 1.0 mph 4.0 mph 95 % 0.00 in
02:46 65.5 °F 64.0 °F 30.04 in SSE 5.0 mph 5.0 mph 95 % 0.00 in
02:51 65.7 °F 64.2 °F 30.04 in SE 2.0 mph 5.0 mph 95 % 0.00 in
02:56 65.5 °F 64.2 °F 30.04 in South 1.0 mph 5.0 mph 96 % 0.00 in
03:01 65.7 °F 64.4 °F 30.04 in SSE 2.0 mph 5.0 mph 96 % 0.00 in
03:06 65.7 °F 64.4 °F 30.04 in SSE 1.0 mph 4.0 mph 96 % 0.00 in
03:11 65.7 °F 64.4 °F 30.04 in SSE 2.0 mph 4.0 mph 96 % 0.00 in
03:16 65.5 °F 64.2 °F 30.04 in SE 2.0 mph 5.0 mph 96 % 0.00 in
03:21 65.5 °F 64.2 °F 30.04 in SE 1.0 mph 5.0 mph 96 % 0.00 in
03:26 65.3 °F 64.0 °F 30.04 in SSE 2.0 mph 5.0 mph 96 % 0.00 in
03:31 65.3 °F 64.0 °F 30.04 in SE 3.0 mph 5.0 mph 96 % 0.00 in
03:36 65.3 °F 64.0 °F 30.04 in SSE 3.0 mph 4.0 mph 96 % 0.00 in
03:41 65.3 °F 64.0 °F 30.04 in SSE 2.0 mph 4.0 mph 96 % 0.00 in
03:46 65.1 °F 64.0 °F 30.04 in SE 3.0 mph 5.0 mph 96 % 0.00 in
03:51 65.1 °F 64.0 °F 30.04 in SE 3.0 mph 6.0 mph 96 % 0.00 in
03:56 65.1 °F 64.0 °F 30.03 in SSE 3.0 mph 6.0 mph 96 % 0.00 in
04:01 64.9 °F 64.0 °F 30.03 in South 3.0 mph 6.0 mph 97 % 0.00 in
04:06 64.9 °F 64.0 °F 30.03 in SE 3.0 mph 5.0 mph 97 % 0.00 in
04:11 64.9 °F 64.0 °F 30.02 in SSE 3.0 mph 5.0 mph 97 % 0.00 in
04:16 64.9 °F 64.0 °F 30.02 in South 1.0 mph 6.0 mph 97 % 0.00 in
04:21 64.8 °F 63.9 °F 30.02 in SE 2.0 mph 6.0 mph 97 % 0.00 in
04:26 64.8 °F 63.9 °F 30.02 in WSW 3.0 mph 6.0 mph 97 % 0.00 in
04:31 64.8 °F 63.9 °F 30.02 in East 4.0 mph 7.0 mph 97 % 0.00 in
04:36 64.9 °F 64.0 °F 30.01 in SE 4.0 mph 8.0 mph 97 % 0.00 in
04:41 64.9 °F 64.0 °F 30.02 in SE 3.0 mph 8.0 mph 97 % 0.00 in
04:46 64.9 °F 64.0 °F 30.02 in South 4.0 mph 8.0 mph 97 % 0.00 in
04:51 64.9 °F 64.0 °F 30.02 in South 4.0 mph 7.0 mph 97 % 0.00 in
04:56 64.9 °F 64.0 °F 30.02 in ESE 4.0 mph 7.0 mph 97 % 0.00 in
05:01 64.9 °F 64.0 °F 30.01 in ESE 5.0 mph 7.0 mph 97 % 0.00 in
05:06 64.9 °F 64.0 °F 30.01 in ESE 5.0 mph 8.0 mph 97 % 0.00 in
05:11 64.9 °F 64.0 °F 30.01 in SSE 3.0 mph 8.0 mph 97 % 0.00 in
05:16 64.9 °F 64.0 °F 30.01 in South 2.0 mph 8.0 mph 97 % 0.00 in
05:22 64.9 °F 64.0 °F 30.01 in SSE 3.0 mph 7.0 mph 97 % 0.00 in
05:27 64.9 °F 64.0 °F 30.01 in SSE 5.0 mph 7.0 mph 97 % 0.00 in
05:32 64.9 °F 64.0 °F 30.01 in SSE 4.0 mph 6.0 mph 97 % 0.00 in
05:37 64.9 °F 64.4 °F 30.01 in SE 4.0 mph 6.0 mph 98 % 0.00 in
05:42 64.9 °F 64.4 °F 30.01 in SE 4.0 mph 7.0 mph 98 % 0.00 in
05:47 64.9 °F 64.4 °F 30.01 in South 3.0 mph 7.0 mph 98 % 0.00 in
05:52 64.9 °F 64.4 °F 30.01 in SE 3.0 mph 9.0 mph 98 % 0.00 in
05:57 64.9 °F 64.4 °F 30.01 in SE 6.0 mph 9.0 mph 98 % 0.00 in
06:02 65.1 °F 64.6 °F 30.01 in South 6.0 mph 9.0 mph 98 % 0.00 in
06:07 65.1 °F 64.6 °F 30.01 in SSW 4.0 mph 10.0 mph 98 % 0.00 in
06:12 65.1 °F 64.6 °F 30.01 in South 5.0 mph 10.0 mph 98 % 0.00 in
06:17 65.1 °F 64.6 °F 30.01 in SSW 4.0 mph 10.0 mph 98 % 0.00 in
06:22 65.1 °F 64.2 °F 30.01 in SE 4.0 mph 8.0 mph 97 % 0.00 in
06:27 65.1 °F 64.6 °F 30.01 in SSE 4.0 mph 8.0 mph 98 % 0.00 in
06:32 65.3 °F 64.8 °F 30.01 in SE 5.0 mph 8.0 mph 98 % 0.00 in
06:37 65.5 °F 64.9 °F 30.01 in SSE 4.0 mph 8.0 mph 98 % 0.00 in
06:42 65.5 °F 64.9 °F 30.01 in South 3.0 mph 7.0 mph 98 % 0.00 in
06:47 65.7 °F 65.1 °F 30.01 in South 3.0 mph 7.0 mph 98 % 0.00 in
06:52 65.7 °F 64.8 °F 30.02 in SSE 5.0 mph 8.0 mph 97 % 0.00 in
06:57 65.8 °F 64.9 °F 30.02 in SE 3.0 mph 8.0 mph 97 % 0.00 in
07:02 65.8 °F 64.9 °F 30.01 in South 7.0 mph 8.0 mph 97 % 0.00 in
07:07 65.8 °F 64.9 °F 30.02 in SSE 3.0 mph 9.0 mph 97 % 0.00 in
07:12 66.0 °F 65.1 °F 30.02 in SW 6.0 mph 9.0 mph 97 % 0.00 in
07:17 66.2 °F 65.3 °F 30.02 in SSE 7.0 mph 9.0 mph 97 % 0.00 in
07:22 66.4 °F 65.1 °F 30.02 in South 6.0 mph 10.0 mph 96 % 0.00 in
07:27 66.6 °F 65.3 °F 30.02 in South 6.0 mph 10.0 mph 96 % 0.00 in
07:32 66.7 °F 65.5 °F 30.02 in SSE 5.0 mph 13.0 mph 96 % 0.00 in
07:37 66.9 °F 65.7 °F 30.03 in South 8.0 mph 13.0 mph 96 % 0.00 in
07:42 66.9 °F 65.5 °F 30.03 in SE 11.0 mph 13.0 mph 95 % 0.00 in
07:47 67.3 °F 65.8 °F 30.03 in ESE 8.0 mph 13.0 mph 95 % 0.00 in
07:52 67.5 °F 66.0 °F 30.03 in SE 5.0 mph 13.0 mph 95 % 0.00 in
07:57 67.5 °F 65.7 °F 30.03 in ESE 9.0 mph 13.0 mph 94 % 0.00 in
08:02 67.6 °F 65.8 °F 30.03 in SSE 4.0 mph 12.0 mph 94 % 0.00 in
08:07 67.8 °F 66.0 °F 30.03 in SE 8.0 mph 12.0 mph 94 % 0.00 in
08:12 68.2 °F 66.0 °F 30.03 in South 8.0 mph 12.0 mph 93 % 0.00 in
08:17 68.4 °F 66.2 °F 30.04 in SE 8.0 mph 11.0 mph 93 % 0.00 in
08:22 68.5 °F 66.4 °F 30.04 in SE 9.0 mph 13.0 mph 93 % 0.00 in
08:27 68.7 °F 66.4 °F 30.04 in SSE 5.0 mph 13.0 mph 92 % 0.00 in
08:32 69.1 °F 66.7 °F 30.04 in SSE 4.0 mph 13.0 mph 92 % 0.00 in
08:37 69.4 °F 67.1 °F 30.04 in South 7.0 mph 13.0 mph 92 % 0.00 in
08:42 69.8 °F 67.1 °F 30.04 in SSE 7.0 mph 14.0 mph 91 % 0.00 in
08:47 70.0 °F 66.9 °F 30.04 in SSE 11.0 mph 14.0 mph 90 % 0.00 in
08:52 70.3 °F 66.9 °F 30.04 in SSE 6.0 mph 14.0 mph 89 % 0.00 in
08:58 70.7 °F 67.3 °F 30.04 in SE 4.0 mph 16.0 mph 89 % 0.00 in
09:03 71.1 °F 67.3 °F 30.04 in South 12.0 mph 16.0 mph 88 % 0.00 in
09:07 71.2 °F 67.5 °F 30.04 in SW 8.0 mph 16.0 mph 88 % 0.00 in
09:13 71.6 °F 67.8 °F 30.05 in South 13.0 mph 15.0 mph 88 % 0.00 in
09:18 72.0 °F 67.8 °F 30.05 in SSE 7.0 mph 15.0 mph 87 % 0.00 in
09:23 72.0 °F 67.5 °F 30.05 in South 11.0 mph 18.0 mph 86 % 0.00 in
09:28 71.8 °F 67.3 °F 30.05 in SSE 7.0 mph 18.0 mph 86 % 0.00 in
09:33 72.0 °F 67.8 °F 30.05 in SSE 7.0 mph 18.0 mph 87 % 0.00 in
09:38 72.1 °F 67.6 °F 30.05 in SSW 12.0 mph 14.0 mph 86 % 0.00 in
09:43 72.3 °F 67.8 °F 30.05 in SSE 11.0 mph 15.0 mph 86 % 0.00 in
09:48 72.3 °F 67.8 °F 30.06 in SSE 18.0 mph 18.0 mph 86 % 0.00 in
09:53 72.5 °F 67.8 °F 30.06 in South 12.0 mph 18.0 mph 85 % 0.00 in
09:58 72.5 °F 67.8 °F 30.05 in South 11.0 mph 19.0 mph 85 % 0.00 in
10:03 72.5 °F 67.8 °F 30.06 in SSE 9.0 mph 19.0 mph 85 % 0.00 in
10:08 72.7 °F 67.8 °F 30.06 in SE 10.0 mph 19.0 mph 85 % 0.00 in
10:13 72.9 °F 67.8 °F 30.06 in SSE 14.0 mph 22.0 mph 84 % 0.00 in
10:15 73.0 °F 68.0 °F 30.06 in SE 12.0 mph 22.0 mph 84 % 0.00 in
10:20 73.2 °F 67.8 °F 30.06 in ESE 12.0 mph 22.0 mph 83 % 0.00 in
10:25 73.2 °F 67.8 °F 30.06 in South 9.0 mph 22.0 mph 83 % 0.00 in
10:30 73.6 °F 67.8 °F 30.06 in SSW 11.0 mph 21.0 mph 82 % 0.00 in
10:35 73.8 °F 68.0 °F 30.05 in SE 6.0 mph 27.0 mph 82 % 0.00 in
10:40 73.9 °F 67.5 °F 30.06 in South 5.0 mph 27.0 mph 80 % 0.00 in
10:45 74.3 °F 67.6 °F 30.06 in South 7.0 mph 19.0 mph 80 % 0.00 in
10:50 74.5 °F 67.8 °F 30.06 in South 6.0 mph 19.0 mph 80 % 0.00 in
10:55 75.2 °F 67.8 °F 30.05 in SE 14.0 mph 19.0 mph 78 % 0.00 in
11:00 75.2 °F 67.5 °F 30.05 in SE 9.0 mph 21.0 mph 77 % 0.00 in
11:05 75.6 °F 67.8 °F 30.05 in SSE 9.0 mph 21.0 mph 77 % 0.00 in
11:10 75.4 °F 67.3 °F 30.05 in SE 8.0 mph 21.0 mph 76 % 0.00 in
11:15 74.8 °F 67.1 °F 30.05 in South 7.0 mph 21.0 mph 77 % 0.00 in
11:20 74.8 °F 67.1 °F 30.05 in South 3.0 mph 21.0 mph 77 % 0.00 in
11:25 75.0 °F 67.3 °F 30.05 in SSE 6.0 mph 16.0 mph 77 % 0.00 in
11:30 75.2 °F 67.1 °F 30.04 in South 9.0 mph 15.0 mph 76 % 0.00 in
11:35 75.2 °F 66.4 °F 30.04 in SSE 5.0 mph 16.0 mph 74 % 0.00 in
11:40 76.1 °F 66.4 °F 30.04 in SW 13.0 mph 16.0 mph 72 % 0.00 in
11:45 76.6 °F 66.6 °F 30.04 in South 8.0 mph 22.0 mph 71 % 0.00 in
11:50 76.5 °F 66.0 °F 30.04 in South 17.0 mph 22.0 mph 70 % 0.00 in
11:55 76.5 °F 66.4 °F 30.03 in South 9.0 mph 22.0 mph 71 % 0.00 in
12:00 76.3 °F 66.2 °F 30.03 in South 2.0 mph 19.0 mph 71 % 0.00 in
12:05 76.3 °F 65.8 °F 30.03 in SSE 7.0 mph 19.0 mph 70 % 0.00 in
12:10 76.8 °F 66.2 °F 30.02 in SSE 9.0 mph 17.0 mph 70 % 0.00 in
12:15 77.2 °F 65.8 °F 30.02 in WSW 13.0 mph 16.0 mph 68 % 0.00 in
12:20 76.6 °F 65.7 °F 30.02 in SSW 7.0 mph 21.0 mph 69 % 0.00 in
12:25 76.6 °F 66.2 °F 30.01 in SSW 12.0 mph 21.0 mph 70 % 0.00 in
12:30 77.4 °F 66.0 °F 30.01 in SW 8.0 mph 21.0 mph 68 % 0.00 in
12:35 77.5 °F 66.2 °F 30.01 in SE 14.0 mph 20.0 mph 68 % 0.00 in
12:40 77.5 °F 65.3 °F 30.00 in SE 14.0 mph 20.0 mph 66 % 0.00 in
12:45 77.5 °F 64.8 °F 30.00 in SW 14.0 mph 21.0 mph 65 % 0.00 in
12:50 77.4 °F 64.8 °F 30.00 in SSW 15.0 mph 21.0 mph 65 % 0.00 in
12:55 77.7 °F 64.9 °F 29.99 in ESE 10.0 mph 21.0 mph 65 % 0.00 in
13:00 78.1 °F 65.3 °F 29.99 in SSE 8.0 mph 21.0 mph 65 % 0.00 in
13:05 77.5 °F 64.8 °F 29.99 in SSE 7.0 mph 19.0 mph 65 % 0.00 in
13:10 77.2 °F 64.9 °F 29.99 in SSW 7.0 mph 19.0 mph 66 % 0.00 in
13:15 77.5 °F 65.3 °F 29.99 in SW 15.0 mph 20.0 mph 66 % 0.00 in
13:20 77.7 °F 65.5 °F 29.99 in SSW 7.0 mph 23.0 mph 66 % 0.00 in
13:25 78.1 °F 65.8 °F 29.98 in SSW 10.0 mph 23.0 mph 66 % 0.00 in
13:30 77.7 °F 64.9 °F 29.98 in South 11.0 mph 23.0 mph 65 % 0.00 in
13:35 77.5 °F 64.8 °F 29.98 in SSE 11.0 mph 19.0 mph 65 % 0.00 in
13:40 77.5 °F 64.8 °F 29.98 in SW 6.0 mph 19.0 mph 65 % 0.00 in
13:45 77.2 °F 64.9 °F 29.98 in ESE 11.0 mph 19.0 mph 66 % 0.00 in
13:50 76.8 °F 64.6 °F 29.97 in South 12.0 mph 20.0 mph 66 % 0.00 in
13:56 77.5 °F 65.3 °F 29.97 in SSW 8.0 mph 20.0 mph 66 % 0.00 in
14:01 78.1 °F 65.3 °F 29.97 in SSW 4.0 mph 20.0 mph 65 % 0.00 in
14:06 78.4 °F 65.7 °F 29.97 in SSE 10.0 mph 19.0 mph 65 % 0.00 in
14:11 78.8 °F 65.7 °F 29.97 in SE 12.0 mph 19.0 mph 64 % 0.00 in
14:16 78.6 °F 64.9 °F 29.96 in SE 13.0 mph 21.0 mph 63 % 0.00 in
14:21 78.1 °F 64.9 °F 29.96 in SE 14.0 mph 21.0 mph 64 % 0.00 in
14:26 78.1 °F 64.9 °F 29.96 in South 12.0 mph 21.0 mph 64 % 0.00 in
14:31 78.1 °F 64.9 °F 29.96 in SSE 8.0 mph 20.0 mph 64 % 0.00 in
14:36 77.9 °F 64.8 °F 29.96 in ESE 11.0 mph 19.0 mph 64 % 0.00 in
14:41 78.3 °F 65.1 °F 29.96 in SSE 16.0 mph 16.0 mph 64 % 0.00 in
14:46 78.3 °F 64.6 °F 29.96 in SSE 11.0 mph 17.0 mph 63 % 0.00 in
14:51 78.3 °F 64.2 °F 29.96 in SSW 11.0 mph 17.0 mph 62 % 0.00 in
14:56 77.9 °F 64.2 °F 29.96 in South 10.0 mph 22.0 mph 63 % 0.00 in
15:01 77.9 °F 64.2 °F 29.97 in SSE 10.0 mph 22.0 mph 63 % 0.00 in
15:06 77.7 °F 64.0 °F 29.97 in SSE 7.0 mph 22.0 mph 63 % 0.00 in
15:11 77.7 °F 64.0 °F 29.97 in South 5.0 mph 20.0 mph 63 % 0.00 in
15:16 77.7 °F 64.0 °F 29.96 in SSE 7.0 mph 20.0 mph 63 % 0.00 in
15:21 77.7 °F 64.6 °F 29.97 in South 11.0 mph 20.0 mph 64 % 0.00 in
15:26 78.1 °F 64.0 °F 29.96 in SE 16.0 mph 19.0 mph 62 % 0.00 in
15:31 78.1 °F 64.0 °F 29.97 in SSE 10.0 mph 19.0 mph 62 % 0.00 in
15:36 78.3 °F 64.2 °F 29.97 in SE 10.0 mph 19.0 mph 62 % 0.00 in
15:41 78.8 °F 64.8 °F 29.96 in SE 10.0 mph 18.0 mph 62 % 0.00 in
15:46 79.0 °F 64.4 °F 29.96 in South 8.0 mph 18.0 mph 61 % 0.00 in
15:51 78.6 °F 64.6 °F 29.97 in SW 12.0 mph 17.0 mph 62 % 0.00 in
15:56 78.4 °F 64.4 °F 29.97 in SW 8.0 mph 17.0 mph 62 % 0.00 in
16:01 77.9 °F 64.2 °F 29.97 in South 13.0 mph 17.0 mph 63 % 0.00 in
16:06 77.5 °F 64.4 °F 29.97 in SSE 7.0 mph 17.0 mph 64 % 0.00 in
16:11 77.7 °F 64.6 °F 29.97 in South 5.0 mph 16.0 mph 64 % 0.00 in
16:16 77.7 °F 64.6 °F 29.96 in SW 8.0 mph 16.0 mph 64 % 0.00 in
16:21 77.5 °F 64.8 °F 29.96 in South 10.0 mph 21.0 mph 65 % 0.00 in
16:26 77.4 °F 64.8 °F 29.96 in SSE 11.0 mph 21.0 mph 65 % 0.00 in
16:31 77.2 °F 64.9 °F 29.96 in SW 11.0 mph 21.0 mph 66 % 0.00 in
16:36 77.0 °F 64.8 °F 29.96 in SSW 7.0 mph 17.0 mph 66 % 0.00 in
16:41 76.8 °F 64.9 °F 29.96 in SSE 6.0 mph 21.0 mph 67 % 0.00 in
16:46 76.8 °F 64.9 °F 29.96 in East 16.0 mph 21.0 mph 67 % 0.00 in
16:51 76.6 °F 64.9 °F 29.96 in SW 10.0 mph 21.0 mph 67 % 0.00 in
16:56 76.5 °F 65.1 °F 29.96 in SE 7.0 mph 19.0 mph 68 % 0.00 in
17:01 76.3 °F 65.3 °F 29.96 in SSW 6.0 mph 19.0 mph 69 % 0.00 in
17:06 76.3 °F 65.3 °F 29.96 in SW 12.0 mph 19.0 mph 69 % 0.00 in
17:11 76.1 °F 65.7 °F 29.96 in South 9.0 mph 18.0 mph 70 % 0.00 in
17:16 75.9 °F 65.8 °F 29.96 in South 5.0 mph 18.0 mph 71 % 0.00 in
17:21 75.7 °F 65.7 °F 29.96 in SSE 11.0 mph 16.0 mph 71 % 0.00 in
17:26 75.6 °F 65.8 °F 29.96 in South 6.0 mph 15.0 mph 72 % 0.00 in
17:31 75.4 °F 66.2 °F 29.96 in SSW 8.0 mph 15.0 mph 73 % 0.00 in
17:37 75.0 °F 66.2 °F 29.96 in South 5.0 mph 15.0 mph 74 % 0.00 in
17:42 74.8 °F 66.4 °F 29.96 in SSW 7.0 mph 12.0 mph 75 % 0.00 in
17:47 74.8 °F 66.4 °F 29.96 in SSE 10.0 mph 12.0 mph 75 % 0.00 in
17:52 74.7 °F 66.2 °F 29.96 in SE 9.0 mph 17.0 mph 75 % 0.00 in
17:57 74.5 °F 66.4 °F 29.96 in SSE 5.0 mph 17.0 mph 76 % 0.00 in
18:02 74.3 °F 66.6 °F 29.96 in South 10.0 mph 17.0 mph 77 % 0.00 in
18:07 74.1 °F 66.4 °F 29.96 in SE 6.0 mph 18.0 mph 77 % 0.00 in
18:12 73.9 °F 66.6 °F 29.96 in SE 6.0 mph 18.0 mph 78 % 0.00 in
18:17 73.8 °F 66.4 °F 29.96 in South 5.0 mph 18.0 mph 78 % 0.00 in
18:22 73.8 °F 66.9 °F 29.96 in SE 10.0 mph 17.0 mph 79 % 0.00 in
18:27 73.6 °F 66.7 °F 29.96 in SE 13.0 mph 13.0 mph 79 % 0.00 in
18:32 73.6 °F 66.7 °F 29.96 in South 11.0 mph 17.0 mph 79 % 0.00 in
18:37 73.6 °F 67.1 °F 29.96 in SSE 5.0 mph 17.0 mph 80 % 0.00 in
18:42 73.2 °F 66.7 °F 29.96 in SSE 6.0 mph 17.0 mph 80 % 0.00 in
18:47 73.2 °F 67.1 °F 29.96 in SSW 9.0 mph 14.0 mph 81 % 0.00 in
18:52 73.2 °F 67.1 °F 29.96 in SSE 10.0 mph 14.0 mph 81 % 0.00 in
18:57 73.0 °F 66.9 °F 29.96 in South 7.0 mph 14.0 mph 81 % 0.00 in
19:02 73.0 °F 67.3 °F 29.96 in ESE 8.0 mph 14.0 mph 82 % 0.00 in
19:07 73.0 °F 67.3 °F 29.96 in SE 4.0 mph 14.0 mph 82 % 0.00 in
19:12 72.9 °F 67.5 °F 29.96 in ESE 7.0 mph 14.0 mph 83 % 0.00 in
19:17 72.9 °F 67.5 °F 29.96 in ESE 7.0 mph 14.0 mph 83 % 0.00 in
19:22 72.9 °F 67.5 °F 29.96 in SE 7.0 mph 12.0 mph 83 % 0.00 in
19:27 72.9 °F 67.8 °F 29.97 in SSE 7.0 mph 15.0 mph 84 % 0.00 in
19:32 72.9 °F 67.8 °F 29.97 in SSE 12.0 mph 16.0 mph 84 % 0.00 in
19:37 72.7 °F 67.6 °F 29.97 in South 6.0 mph 18.0 mph 84 % 0.00 in
19:42 72.7 °F 67.8 °F 29.97 in South 9.0 mph 18.0 mph 85 % 0.00 in
19:47 72.7 °F 67.8 °F 29.97 in SE 9.0 mph 18.0 mph 85 % 0.00 in
19:52 72.5 °F 67.8 °F 29.97 in SE 9.0 mph 16.0 mph 85 % 0.00 in
19:57 72.3 °F 67.8 °F 29.97 in SSE 8.0 mph 16.0 mph 86 % 0.00 in
20:02 72.3 °F 67.8 °F 29.97 in SE 9.0 mph 16.0 mph 86 % 0.00 in
20:07 72.3 °F 67.8 °F 29.97 in ESE 7.0 mph 13.0 mph 86 % 0.00 in
20:12 72.1 °F 68.0 °F 29.97 in SE 7.0 mph 18.0 mph 87 % 0.00 in
20:17 72.1 °F 68.0 °F 29.97 in South 6.0 mph 18.0 mph 87 % 0.00 in
20:22 72.1 °F 68.0 °F 29.98 in SSE 11.0 mph 18.0 mph 87 % 0.00 in
20:27 72.1 °F 68.0 °F 29.98 in SSW 11.0 mph 16.0 mph 87 % 0.00 in
20:32 72.0 °F 67.8 °F 29.98 in SE 15.0 mph 15.0 mph 87 % 0.00 in
20:37 72.0 °F 68.2 °F 29.98 in SE 6.0 mph 17.0 mph 88 % 0.00 in
20:42 72.0 °F 68.2 °F 29.98 in SSE 10.0 mph 17.0 mph 88 % 0.00 in
20:47 72.0 °F 68.2 °F 29.98 in SE 12.0 mph 20.0 mph 88 % 0.00 in
20:52 71.8 °F 68.0 °F 29.98 in South 7.0 mph 20.0 mph 88 % 0.00 in
20:57 71.8 °F 68.4 °F 29.98 in South 10.0 mph 20.0 mph 89 % 0.00 in
21:02 71.6 °F 68.2 °F 29.98 in SE 7.0 mph 17.0 mph 89 % 0.00 in
21:07 71.6 °F 68.2 °F 29.99 in SSE 8.0 mph 16.0 mph 89 % 0.00 in
21:12 71.4 °F 68.0 °F 29.99 in South 10.0 mph 17.0 mph 89 % 0.00 in
21:17 71.4 °F 68.0 °F 29.99 in South 8.0 mph 17.0 mph 89 % 0.00 in
21:22 71.4 °F 68.0 °F 29.99 in SSE 6.0 mph 17.0 mph 89 % 0.00 in
21:28 71.4 °F 68.4 °F 29.99 in SSW 10.0 mph 13.0 mph 90 % 0.00 in
21:33 71.4 °F 68.4 °F 29.99 in SSE 9.0 mph 13.0 mph 90 % 0.00 in
21:38 71.4 °F 68.4 °F 30.00 in SE 10.0 mph 13.0 mph 90 % 0.00 in
21:48 71.2 °F 68.2 °F 30.00 in ESE 5.0 mph 13.0 mph 90 % 0.00 in
21:53 71.2 °F 68.2 °F 30.01 in SSE 6.0 mph 13.0 mph 90 % 0.00 in
21:58 71.2 °F 68.2 °F 30.01 in SSW 7.0 mph 13.0 mph 90 % 0.00 in
22:03 71.2 °F 68.2 °F 30.01 in South 3.0 mph 14.0 mph 90 % 0.00 in
22:08 71.2 °F 68.2 °F 30.01 in East 5.0 mph 14.0 mph 90 % 0.00 in
22:13 71.2 °F 68.2 °F 30.01 in SSE 4.0 mph 14.0 mph 90 % 0.00 in
22:18 71.2 °F 68.2 °F 30.01 in South 3.0 mph 11.0 mph 90 % 0.00 in
22:23 71.2 °F 68.2 °F 30.01 in SSE 9.0 mph 11.0 mph 90 % 0.00 in
22:28 71.2 °F 68.2 °F 30.01 in SE 3.0 mph 11.0 mph 90 % 0.00 in
22:30 71.2 °F 68.2 °F 30.01 in SSW 6.0 mph 11.0 mph 90 % 0.00 in
22:35 71.2 °F 68.2 °F 30.01 in SSE 5.0 mph 11.0 mph 90 % 0.00 in
22:40 71.2 °F 68.2 °F 30.01 in South 4.0 mph 11.0 mph 90 % 0.00 in
22:45 71.2 °F 68.2 °F 30.01 in SSE 4.0 mph 11.0 mph 90 % 0.00 in
22:50 71.1 °F 68.0 °F 30.01 in SSE 3.0 mph 11.0 mph 90 % 0.00 in
22:56 71.1 °F 68.0 °F 30.01 in SSE 5.0 mph 11.0 mph 90 % 0.00 in
23:01 71.1 °F 68.0 °F 30.01 in South 5.0 mph 9.0 mph 90 % 0.00 in
23:06 71.1 °F 68.0 °F 30.01 in SSW 9.0 mph 10.0 mph 90 % 0.00 in
23:11 71.1 °F 68.0 °F 30.01 in SSE 5.0 mph 11.0 mph 90 % 0.00 in
23:16 71.1 °F 68.0 °F 30.01 in SSW 7.0 mph 13.0 mph 90 % 0.00 in
23:21 71.1 °F 68.0 °F 30.01 in SSW 10.0 mph 13.0 mph 90 % 0.00 in
23:26 71.2 °F 68.2 °F 30.01 in South 5.0 mph 14.0 mph 90 % 0.00 in
23:31 71.2 °F 68.2 °F 30.01 in SE 10.0 mph 14.0 mph 90 % 0.00 in
23:36 71.1 °F 68.0 °F 30.01 in SE 8.0 mph 14.0 mph 90 % 0.00 in
23:42 71.1 °F 68.0 °F 30.01 in SW 6.0 mph 13.0 mph 90 % 0.00 in
23:47 70.9 °F 67.8 °F 30.01 in SE 10.0 mph 12.0 mph 90 % 0.00 in
23:52 70.9 °F 67.8 °F 30.01 in SSE 5.0 mph 13.0 mph 90 % 0.00 in
23:57 70.9 °F 67.8 °F 30.01 in SSW 6.0 mph 13.0 mph 90 % 0.00 in
Spring, Texas: Villages of Bridgestone
Compliments of Weather Underground - 2.75 mb

Script developed by  Jim McMurry - jmcmurry@mwt.net Adapted for the template by  Wim van der Kuil - Leuven-Template.eu

You find our weather info also at:

UK Metoffice

WeatherCloud

Weather Underground

Mid-South Weather Network

AWEKAS

Citizen Weather Observer Program (CWOP)

HAMweather, WeatherForYou, PWS Weather

Equipment we use:

Weather-station
Davis Vantage Vue

Weather-program
Meteohub

Weather-server
Debian 7.9 x86 (Guest)

Provider
DreamHost

Davis Vantage Vue

Meteohub

Debian 7.9 x86 (Guest)

DreamHost